CW8429 Weather Reports


Display with metric or nautical units.
time (UTC)temp
F
wind
direction
speed
MPH
gust
MPH
rain 1hr
in
rain 24hr
in
rain mn
in
humidity
%
barometer
mb
20260831002619 72 348 1.0 12.0 0.00 0.11 0.11 39 1017.1
20260831001630 73 169 3.0 8.0 0.00 0.11 0.11 32 1017.2
20260831000626 73 218 2.0 10.0 0.00 0.11 0.11 33 1017.1
20260830235631 74 271 3.0 10.0 0.00 0.11 0.11 33 1017.3
20260830234622 74 277 2.0 10.0 0.00 0.11 0.11 34 1017.2
20260830233613 73 244 6.0 13.0 0.00 0.11 0.11 35 1017.2
20260830232628 74 247 4.0 14.0 0.00 0.11 0.11 37 1017.2
20260830231619 74 284 4.0 9.0 0.00 0.11 0.11 39 1017.2
20260830230651 74 252 5.0 10.0 0.00 0.11 0.11 37 1017.1
20260830225613 74 255 5.0 13.0 0.00 0.11 0.11 36 1017.2
20260830224627 74 289 8.0 13.0 0.00 0.11 0.11 41 1017.0
20260830223617 75 317 8.0 14.0 0.00 0.11 0.11 37 1017.1
20260830222628 75 287 9.0 13.0 0.00 0.11 0.11 39 1017.3
20260830221620 74 275 8.0 14.0 0.00 0.11 0.11 38 1017.3
20260830220635 75 290 8.0 17.0 0.00 0.11 0.11 37 1017.3
20260830215638 76 257 6.0 16.0 0.00 0.11 0.11 33 1017.3
20260830214628 75 284 7.0 13.0 0.00 0.11 0.11 31 1017.5
20260830213619 75 275 9.0 16.0 0.00 0.11 0.11 30 1017.4
20260830212614 75 318 5.0 15.0 0.00 0.11 0.11 32 1017.5
20260830211624 74 295 6.0 12.0 0.00 0.11 0.11 34 1017.4
20260830210616 73 360 5.0 11.0 0.00 0.11 0.11 33 1017.4
20260830205639 74 150 8.0 16.0 0.00 0.11 0.11 34 1017.5
20260830204650 73 270 8.0 16.0 0.00 0.11 0.11 36 1017.8
20260830203623 73 130 6.0 14.0 0.00 0.11 0.11 36 1017.7
20260830202634 73 88 8.0 16.0 0.00 0.11 0.11 36 1017.7
20260830201624 72 134 5.0 13.0 0.00 0.11 0.11 39 1017.7
20260830200614 72 140 6.0 13.0 0.00 0.11 0.11 36 1017.8
20260830195621 72 288 5.0 15.0 0.00 0.11 0.11 39 1017.9
20260830194613 72 51 10.0 14.0 0.00 0.11 0.11 35 1017.8
20260830193643 72 224 7.0 13.0 0.00 0.11 0.11 37 1017.9
20260830192613 72 300 4.0 16.0 0.00 0.11 0.11 39 1017.8
20260830191629 71 296 5.0 12.0 0.00 0.11 0.11 41 1017.9
20260830190640 72 236 6.0 13.0 0.00 0.11 0.11 40 1017.9
20260830185623 72 315 6.0 18.0 0.00 0.14 0.11 40 1018.0
20260830184634 72 286 5.0 15.0 0.00 0.14 0.11 45 1017.9
20260830183628 70 280 4.0 8.0 0.00 0.14 0.11 50 1017.8
20260830182619 70 259 5.0 15.0 0.00 0.14 0.11 53 1017.9
20260830181631 69 287 4.0 9.0 0.00 0.14 0.11 51 1017.8
20260830180630 70 273 5.0 10.0 0.00 0.14 0.11 50 1017.8
20260830175617 71 274 5.0 11.0 0.00 0.23 0.11 52 1017.9
20260830174648 69 283 3.0 10.0 0.00 0.23 0.11 55 1017.9
20260830173619 68 153 3.0 6.0 0.00 0.23 0.11 52 1018.0
20260830172630 68 272 6.0 10.0 0.00 0.23 0.11 55 1017.9
20260830171642 67 267 1.0 7.0 0.00 0.23 0.11 55 1017.8
20260830170638 68 272 3.0 9.0 0.00 0.23 0.11 53 1017.9
20260830165620 68 307 3.0 9.0 0.00 0.23 0.11 53 1017.7
20260830164631 67 277 4.0 9.0 0.00 0.23 0.11 56 1017.6
20260830163622 67 207 4.0 8.0 0.00 0.23 0.11 51 1017.6
20260830162617 67 139 4.0 10.0 0.00 0.23 0.11 50 1017.6
20260830161628 66 127 6.0 11.0 0.00 0.23 0.11 55 1017.5
20260830160619 65 111 2.0 6.0 0.00 0.23 0.11 58 1017.6
20260830155626 65 136 1.0 9.0 0.00 0.28 0.11 57 1017.7
20260830154617 63 147 5.0 10.0 0.00 0.28 0.11 60 1017.5
20260830153628 62 184 0.0 0.0 0.00 0.28 0.11 68 1017.6
20260830152619 61 184 1.0 6.0 0.00 0.28 0.11 68 1017.6
20260830151614 61 148 1.0 6.0 0.00 0.28 0.11 65 1017.6
20260830150626 61 117 2.0 10.0 0.00 0.28 0.11 62 1017.5
20260830145629 61 261 3.0 10.0 0.00 0.35 0.11 64 1017.4
20260830144620 61 171 6.0 13.0 0.00 0.35 0.11 58 1016.5
20260830143616 61 149 4.0 8.0 0.00 0.35 0.11 64 1016.9
20260830142627 61 121 6.0 13.0 0.00 0.35 0.11 63 1017.2
20260830141619 60 146 10.0 17.0 0.00 0.35 0.11 66 1017.5
20260830140614 59 128 8.0 13.0 0.00 0.35 0.11 73 1017.6
20260830135617 59 131 7.0 12.0 0.00 0.35 0.11 74 1017.6
20260830134628 57 145 9.0 12.0 0.00 0.35 0.11 78 1017.4
20260830133618 57 102 4.0 7.0 0.00 0.35 0.11 80 1018.0
20260830132614 58 303 0.0 4.0 0.00 0.35 0.11 76 1017.6
20260830131625 60 315 3.0 14.0 0.00 0.35 0.11 70 1017.1
20260830130616 59 129 9.0 15.0 0.02 0.35 0.11 66 1016.4
20260830125620 59 157 9.0 18.0 0.03 0.36 0.11 67 1016.3
20260830124635 58 111 9.0 15.0 0.03 0.36 0.11 70 1016.6
20260830123625 59 163 9.0 17.0 0.03 0.36 0.11 68 1017.3
20260830122616 58 144 10.0 19.0 0.03 0.36 0.11 77 1017.5
20260830121627 57 157 9.0 12.0 0.03 0.36 0.11 81 1017.5
20260830120624 57 217 2.0 3.0 0.01 0.34 0.09 82 1017.4
20260830115625 58 217 2.0 7.0 0.00 0.33 0.08 78 1016.7
20260830114616 57 158 6.0 8.0 0.00 0.33 0.08 81 1016.3
20260830113628 56 136 3.0 7.0 0.00 0.33 0.08 83 1016.1
20260830112622 56 117 4.0 7.0 0.00 0.33 0.08 85 1016.1
20260830111614 56 154 1.0 4.0 0.00 0.33 0.08 87 1016.2
20260830110625 56 154 0.0 0.0 0.00 0.33 0.08 86 1016.5
20260830105612 56 154 0.0 2.0 0.00 0.33 0.08 86 1016.5
20260830104623 56 154 2.0 6.0 0.00 0.33 0.08 83 1016.7
20260830103613 56 154 4.0 8.0 0.00 0.33 0.08 83 1016.9
20260830102624 56 134 4.0 10.0 0.00 0.33 0.08 84 1017.0
20260830101636 56 116 6.0 8.0 0.00 0.33 0.08 84 1017.3
20260830100630 55 155 6.0 9.0 0.00 0.33 0.08 85 1017.0
20260830095613 55 132 5.0 7.0 0.00 0.33 0.08 85 1016.9
20260830094624 55 124 3.0 7.0 0.00 0.33 0.08 85 1016.9
20260830093619 55 119 4.0 9.0 0.00 0.33 0.08 83 1016.9
20260830092630 54 153 5.0 9.0 0.00 0.33 0.08 84 1016.6
20260830091642 54 115 5.0 11.0 0.00 0.33 0.08 86 1016.3
20260830090613 53 114 5.0 8.0 0.00 0.33 0.08 86 1016.3
20260830085620 54 132 3.0 8.0 0.03 0.33 0.08 85 1016.3
20260830084631 54 123 4.0 7.0 0.08 0.33 0.08 84 1016.3
20260830083622 55 127 4.0 9.0 0.08 0.33 0.08 81 1016.3
20260830082612 55 163 7.0 14.0 0.08 0.33 0.08 79 1016.1
20260830081625 55 86 11.0 20.0 0.08 0.33 0.08 79 1015.5
20260830080615 55 82 13.0 20.0 0.08 0.33 0.08 77 1015.8
20260830075617 57 136 5.0 12.0 0.05 0.31 0.05 75 1018.7
20260830074629 59 334 7.0 13.0 0.00 0.26 0.00 71 1019.0
20260830073623 59 157 4.0 8.0 0.00 0.26 0.00 71 1018.0
20260830072632 59 118 4.0 8.0 0.00 0.26 0.00 73 1017.3
20260830071621 59 144 3.0 7.0 0.00 0.26 0.00 73 1017.0
20260830070615 59 120 6.0 8.0 0.00 0.26 0.00 74 1016.8
20260830065618 59 112 2.0 9.0 0.00 0.29 0.00 73 1016.9
20260830064629 59 118 7.0 10.0 0.00 0.29 0.00 73 1017.0
20260830063618 59 121 3.0 7.0 0.00 0.29 0.00 72 1017.1
20260830062629 59 194 4.0 5.0 0.00 0.29 0.00 72 1017.2
20260830061618 59 203 2.0 3.0 0.00 0.29 0.00 71 1017.1
20260830060613 59 203 1.0 3.0 0.00 0.29 0.00 71 1017.3
20260830055615 59 203 0.0 5.0 0.00 0.30 0.29 70 1017.4
20260830054623 59 204 2.0 4.0 0.00 0.30 0.29 73 1017.4
20260830053615 59 118 3.0 4.0 0.00 0.30 0.29 74 1017.0
20260830052625 58 117 4.0 6.0 0.00 0.30 0.29 75 1016.9
20260830051616 58 229 3.0 4.0 0.00 0.30 0.29 75 1016.7
20260830050628 58 306 1.0 4.0 0.00 0.30 0.29 76 1016.7
20260830045615 58 306 1.0 5.0 0.00 0.30 0.29 75 1016.6
20260830044627 59 277 1.0 4.0 0.00 0.30 0.29 72 1016.5
20260830043618 60 338 0.0 5.0 0.00 0.30 0.29 71 1016.5
20260830042613 61 143 2.0 5.0 0.00 0.30 0.29 69 1016.4
20260830041649 60 155 4.0 8.0 0.00 0.30 0.29 70 1016.2
20260830040619 60 129 5.0 9.0 0.00 0.30 0.29 71 1016.3
20260830035623 60 116 7.0 10.0 0.00 0.32 0.29 70 1016.1
20260830034614 61 139 4.0 5.0 0.00 0.32 0.29 68 1016.1
20260830033630 61 123 1.0 6.0 0.00 0.32 0.29 68 1016.2
20260830032621 61 115 4.0 6.0 0.00 0.32 0.29 68 1016.0
20260830031613 61 297 0.0 4.0 0.00 0.32 0.29 68 1016.2
20260830030628 61 298 1.0 4.0 0.00 0.32 0.29 69 1015.9
20260830025652 62 297 0.0 4.0 0.00 0.32 0.29 69 1015.7
20260830024622 64 297 0.0 5.0 0.00 0.32 0.29 64 1015.6
20260830023634 64 150 3.0 4.0 0.00 0.32 0.29 59 1015.6
20260830022622 64 147 2.0 7.0 0.00 0.32 0.29 61 1015.5
20260830021616 64 163 5.0 8.0 0.00 0.32 0.29 62 1015.5
20260830020647 65 176 6.0 8.0 0.00 0.32 0.29 62 1015.7
20260830015629 65 163 2.0 6.0 0.00 0.32 0.29 62 1015.8
20260830014620 65 146 5.0 8.0 0.00 0.32 0.29 60 1015.7
20260830013616 66 139 3.0 7.0 0.00 0.32 0.29 61 1015.7
20260830012626 66 173 2.0 11.0 0.00 0.32 0.29 57 1015.5
20260830011616 66 171 7.0 10.0 0.00 0.32 0.29 56 1015.6
20260830010646 67 148 6.0 11.0 0.00 0.32 0.29 55 1015.9
20260830005630 67 134 5.0 13.0 0.00 0.32 0.29 54 1016.3
20260830004619 67 127 7.0 12.0 0.00 0.32 0.29 54 1016.5
20260830003649 68 188 3.0 10.0 0.00 0.32 0.29 54 1016.3